690  
ASUS41 KBOX 020610  
RWRBOX  
 
REGIONAL WEATHER ROUNDUP  
NATIONAL WEATHER SERVICE BOSTON/NORTON MA  
100 AM EST FRI DEC 02 2022  
 
NOTE: "FAIR" INDICATES FEW OR NO CLOUDS BELOW 12,000 FEET WITH NO  
SIGNIFICANT WEATHER AND/OR S TO VISIBILITY
.  
 
MAZALL-020700-  
EASTERN MASSACHUSETTS  
 
CITY SKY/WX TMP DP RH WIND PRES REMARKS
 
BOSTON PTCLDY 36 23 59 W10 30.38R WCI 28  
6HR MIN TEMP: 34; 6HR MAX TEMP: 39;  
 
BEVERLY CLEAR 30 22 72 SW7 30.36R WCI 23  
LAWRENCE CLEAR 31 22 69 SW8 30.37R WCI 23  
BEDFORD CLEAR 32 21 64 SW6 30.36R WCI 26  
NORWOOD CLEAR 32 22 66 W5 30.39R WCI 27  
MARSHFIELD N/A 30 23 74 SW5 30.38R WCI 25  
PLYMOUTH CLEAR 28 21 75 SW5 30.38R WCI 23  
TAUNTON N/A N/A N/A N/A MISG 30.39R  
NEW BEDFORD CLEAR 31 24 75 W5 30.39R WCI 26  

 
 
MAZALL-020700-  
CAPE COD AND THE ISLANDS  
 
CITY SKY/WX TMP DP RH WIND PRES REMARKS
 
FALMOUTH CLEAR 32 23 69 W8 30.38R WCI 25  
HYANNIS CLEAR 33 23 66 W8 30.36R WCI 26  
CHATHAM CLEAR 33 23 66 CALM 30.38R  
PROVINCETOWN CLEAR 39 26 59 NW15 30.37R WCI 31  
NANTUCKET CLEAR 41 25 53 NW13 30.38R  
MARTHAS VNYRD CLEAR 37 24 59 NW8 30.39R WCI 31  

 
 
MAZALL-020700-  
CENTRAL AND WESTERN MASSACHUSETTS  
 
CITY SKY/WX TMP DP RH WIND PRES REMARKS
 
WORCESTER CLEAR 30 20 66 SW6 30.34R WCI 24  
6HR MIN TEMP: 30; 6HR MAX TEMP: 35;  
 
FITCHBURG CLEAR 27 19 72 CALM 30.37R  
ORANGE CLEAR 27 21 78 SW5 30.36R WCI 22  
SPRINGFIELD CLEAR 31 21 66 NW8 30.36S WCI 24  
WESTFIELD CLEAR 26 22 84 CALM 30.39R  
NORTH ADAMS PTCLDY 32 23 69 W13 30.38R WCI 22  
PITTSFIELD PTCLDY 30 21 69 W14 30.35R WCI 19  

 
 
RIZALL-020700-  
RHODE ISLAND  
 
CITY SKY/WX TMP DP RH WIND PRES REMARKS
 
PROVIDENCE CLEAR 31 21 66 W7 30.40R WCI 24  
6HR MIN TEMP: 31; 6HR MAX TEMP: 38;  
 
NEWPORT CLEAR 33 22 63 W5 30.40R WCI 29  
BLOCK ISLAND CLEAR 37 22 54 NW7G20 30.42R WCI 32  
SMITHFIELD CLEAR 30 22 72 CALM 30.38R  
WESTERLY CLEAR 34 20 56 W6 30.41R WCI 29  

 
 
CTZALL-020700-  
CONNECTICUT  
 
CITY SKY/WX TMP DP RH WIND PRES REMARKS
 
BRADLEY INTL PTCLDY 31 21 66 S3 30.40R  
6HR MIN TEMP: 30; 6HR MAX TEMP: 37;  
 
HARTFORD CLEAR 34 21 59 SW6 30.43R WCI 29  
BRIDGEPORT CLEAR 34 21 59 W8 30.46R WCI 27  
DANBURY CLEAR 31 18 58 SW5 30.45R WCI 26  
GROTON CLEAR 36 21 54 W9 30.42R WCI 29  
NEW HAVEN CLEAR 37 23 56 W8 30.45R WCI 31  
CHESTER FAIR 32 19 59 W6 30.41R WCI 26  
MERIDEN CLEAR 32 20 61 W5 30.44R WCI 27  
WILLIMANTIC CLEAR 31 21 66 SW5 30.41R WCI 26  
OXFORD CLEAR 29 20 69 SW3 30.41S  

 
 
MEZ002-015-021-024-NHZ003-005-008-011-012-014-VTZ005-008-020700-  
NORTHERN NEW ENGLAND  
 
CITY SKY/WX TMP DP RH WIND PRES REMARKS
 
PORTLAND ME CLEAR 30 17 58 SW5 30.30R WCI 25  
6HR MIN TEMP: 27; 6HR MAX TEMP: 34;  
 
BANGOR ME CLEAR 28 17 63 NW5 30.25R WCI 23  
CONCORD NH CLEAR 26 20 77 NW7 30.33R WCI 18  
MANCHESTER NH CLEAR 32 22 66 SW5 30.33R WCI 27  
NASHUA NH CLEAR 31 26 82 CALM 30.36R  
PORTSMOUTH NH PTCLDY 31 21 65 W8 30.33R WCI 24  
JAFFREY NH CLEAR 29 22 75 S6 30.32R WCI 23  
KEENE NH PTCLDY 25 24 96 CALM N/A  
BURLINGTON VT CLOUDY 32 19 58 N3 30.37R  
MT. WASHINGTON FOG 5 5 100 NW62G72 N/A VSB 1/16WCI -26  

 
 
NYZ052-076-020700-  
EASTERN NEW YORK  
 
CITY SKY/WX TMP DP RH WIND PRES REMARKS
 
ALBANY CLOUDY 35 23 61 W10 30.42S WCI 27  
6HR MIN TEMP: 35; 6HR MAX TEMP: 37;  
 
NEW YORK CITY CLEAR 35 18 49 W8 30.47S WCI 29  
6HR MIN TEMP: 35; 6HR MAX TEMP: 41;  
 

 
 
ANZALL-020700-  
MARINE OBSERVATIONS  
 
STATION/POSITION TIME TEMP WIND PRES VSBY WAVE
 
AIR SEA DIR/SP/G HT/PER  
(UTC) (F) (DEG/KT/KT) (MB) (MI) (FT/S)  
BOSTON BUOY 0550 51 280/ 16/ 21 1028.9R 3/ 4  
BUZZARDS BAY 0500 39 290/ 18/ 20 1029.3R  
NANTUCKET SOUND 0550 41 290/ 17/ 21 1028.6R 2/ 3  
MASS BAY-STELLWA 0404 40 50 280/ 17/ 21 1026.5R 1 7/8 3/ 4  
ISLE OF SHOALS 0500 38 250/ 18/ 22 1026.5R  
S OF BLOCK IS 0556 55 N/A 5/ 6  

 
   
.....................KEY......................
 
 
SKY/WX - SKY CONDITION/PRESENT WEATHER  
TMP - TEMPERATURE IN FAHRENHEIT  
DWPT - DEWPOINT IN FAHRENHEIT  
RH - RELATIVE HUMIDITY IN PERCENT  
WIND - DIRECTION AND SPEED IN MPH  
PRES - MEAN SEA LEVEL PRESSURE IN INCHES OF HG  
WCI - WIND CHILL INDEX  
VSB - VISIBILITY IN MILES  
HX - HEAT INDEX  
TC - TEMPERATURE IN CELSIUS  
VRB - VARIABLE WIND DIRECTION  
N/A - NOT AVAILABLE  
 
 
CLICK HERE TO GO TO PREVIOUS BULLETINS.

The Nexlab MA Page
The Nexlab RI Page
The Nexlab NH Page
The Nexlab CT Page Main Text Page